Location: Friaudour
(46.0460°N, 1.2873°E)
Time: 21:08:28
(UTC+00:00)

Cosmos 1607 - Pass Details

Date: 14 July 2020
Orbit: 912 x 990 km, 65.0° (Epoch: 14 August)

Event Time Altitude Azimuth Distance (km) Brightness Sun altitude
Exits shadow 00:20:03 27° 238° (WSW) 1,733 5.0 -22.2°
Maximum altitude 00:23:31 63° 311° (NW) 1,058 4.3 -22.1°
Drops below altitude 10° 00:29:48 10° 32° (NNE) 2,710 7.2 -22.0°
Sets 00:32:27 0° 36° (NE) 3,671 8.1 -21.9°
